This demonstration page uses our WeatherBlox Daily Observations layout. Learn more.

38.88101, -77.10428

Hourly Observations for September 24, 2018

Temp ( °F °C ) Dew Point ( °F °C ) Humidity (%) Winds ( mph kmh ) Pressure ( in mb ) Visibility ( mi km ) Precip ( " mm )
12:52 am 00:52 Cloudy with Light Drizzle 64 17.8 61 16.1 90 90 NNE 10 17 30.26 1025 4 6.43736 0.02 0.508
1:35 am 01:35 Cloudy with Light Rain 64 17.8 61 16.1 90 90 NNE 7 11 30.24 1024 7 11.26538 0.03 0.762
1:42 am 01:42 Cloudy with Light Rain 63 17.2 61 16.1 93 93 NNE 9 15 30.27 1025 8 12.87472 0.03 0.762
1:52 am 01:52 Cloudy with Light Rain 63 17.2 61 16.1 93 93 NNE 10 17 30.25 1025 7 11.26538 0.04 1.016
2:52 am 02:52 Cloudy with Light Rain 63 17.2 60 15.6 90 90 NNE 8 13 30.25 1024 5 8.0467 0 0.0254
3:52 am 03:52 Cloudy with Light Rain 63 17.2 61 16.1 93 93 NNE 10 17 30.25 1024 10 16.0934 0.01 0.254
4:52 am 04:52 Cloudy 64 17.8 61 16.1 90 90 NNE 9 15 30.26 1025 10 16.0934 0 0.0254
5:52 am 05:52 Cloudy 65 18.3 62 16.7 90 90 NNE 7 11 30.28 1025 10 16.0934 0 0
6:04 am 06:04 Cloudy with Light Drizzle 65 18.3 62 16.7 90 90 NE 8 13 30.27 1025 6 9.65604 0 0.0254
6:18 am 06:18 Cloudy with Light Drizzle 65 18.3 62 16.7 90 90 NE 8 13 30.3 1026 5 8.0467 0 0.0254
6:52 am 06:52 Cloudy with Light Drizzle 65 18.3 62 16.7 90 90 NNE 8 13 30.3 1026 3 4.82802 0 0.0254
7:02 am 07:02 Cloudy with Light Drizzle 65 18.3 62 16.7 90 90 NE 8 13 30.3 1026 2 3.21868 0.01 0.254
7:52 am 07:52 Cloudy with Light Rain 65 18.3 62 16.7 90 90 NE 9 15 30.32 1027 2 3.21868 0.03 0.762
8:01 am 08:01 Cloudy with Light Rain 65 18.3 62 16.7 90 90 NE 9 15 30.33 1027 3 4.82802 0 0.0254
8:52 am 08:52 Cloudy with Light Rain 65 18.3 62 16.7 90 90 NE 10 17 30.34 1027 4 6.43736 0.01 0.254
9:44 am 09:44 Cloudy with Light Rain 66 18.9 62 16.7 87 87 NE 9 15 30.36 1028 5 8.0467 0.02 0.508
9:52 am 09:52 Cloudy with Light Rain 66 18.9 62 16.7 87 87 NE 12 19 30.35 1028 5 8.0467 0.03 0.762
10:41 am 10:41 Cloudy with Light Rain 66 18.9 63 17.2 90 90 NE 12 19 30.36 1028 7 11.26538 0.02 0.508
10:52 am 10:52 Cloudy with Light Rain 66 18.9 63 17.2 90 90 NE 10 17 30.35 1028 7 11.26538 0.03 0.762
11:28 am 11:28 Cloudy with Rain 66 18.9 63 17.2 90 90 NE 12 19 30.36 1028 7 11.26538 0.02 0.508
11:52 am 11:52 Cloudy with Light Rain 67 19.4 63 17.2 87 87 ENE 9 15 30.35 1028 7 11.26538 0.04 1.016
12:52 pm 12:52 Cloudy with Light Rain 68 20 62 16.7 81 81 ENE 15 24 30.35 1028 10 16.0934 0 0.0254
1:37 pm 13:37 Cloudy 68 20 63 17.2 84 84 ENE 14 22 30.36 1028 10 16.0934 0 0.0254
1:52 pm 13:52 Cloudy 67 19.4 62 16.7 84 84 ENE 15 24 30.34 1028 9 14.48406 0 0.0254
2:15 pm 14:15 Cloudy 68 20 62 16.7 81 81 ENE 13 20 30.33 1027 10 16.0934 0 0
2:52 pm 14:52 Cloudy 67 19.4 62 16.7 84 84 E 13 20 30.34 1027 10 16.0934 0 0
3:13 pm 15:13 Cloudy 67 19.4 62 16.7 84 84 ENE 8 13 30.33 1027 10 16.0934 0 0
3:52 pm 15:52 Cloudy with Light Rain 67 19.4 62 16.7 84 84 ENE 10 17 30.33 1027 10 16.0934 0 0.0254
4:52 pm 16:52 Cloudy 67 19.4 61 16.1 81 81 ENE 12 19 30.32 1027 10 16.0934 0 0.0254
5:52 pm 17:52 Cloudy 66 18.9 62 16.7 87 87 NE 13 20 30.32 1027 8 12.87472 0 0.0254
6:02 pm 18:02 Cloudy with Light Drizzle 66 18.9 63 17.2 90 90 ENE 12 19 30.33 1027 4 6.43736 0 0.0254
6:08 pm 18:08 Cloudy with Light Rain 66 18.9 63 17.2 90 90 ENE 12 19 30.33 1027 4 6.43736 0 0.0254
6:13 pm 18:13 Cloudy with Light Rain 66 18.9 63 17.2 90 90 NE 9 15 30.33 1027 2.5 4.02335 0 0.0254
6:27 pm 18:27 Cloudy with Light Rain 66 18.9 63 17.2 90 90 NE 12 19 30.33 1027 3 4.82802 0.01 0.254
6:52 pm 18:52 Cloudy with Light Rain 66 18.9 63 17.2 90 90 NE 9 15 30.33 1027 5 8.0467 0.01 0.254
7:38 pm 19:38 Cloudy 66 18.9 63 17.2 90 90 ENE 9 15 30.33 1027 8 12.87472 0.01 0.254
7:40 pm 19:40 Cloudy 66 18.9 63 17.2 90 90 ENE 9 15 30.33 1027 8 12.87472 0.01 0.254
7:52 pm 19:52 Cloudy 66 18.9 63 17.2 90 90 ENE 13 20 30.32 1027 8 12.87472 0.01 0.254
7:54 pm 19:54 Cloudy 66 18.9 62 16.7 87 87 ENE 12 19 30.33 1027 8 12.87472 0 0
8:06 pm 20:06 Cloudy 66 18.9 62 16.7 87 87 ENE 12 19 30.33 1027 7 11.26538 0 0
8:52 pm 20:52 Cloudy with Light Drizzle 66 18.9 63 17.2 90 90 ENE 10 17 30.34 1027 5 8.0467 0 0.0254
9:52 pm 21:52 Cloudy with Light Rain 66 18.9 63 17.2 90 90 ENE 12 19 30.33 1027 5 8.0467 0.01 0.254
10:27 pm 22:27 Cloudy with Light Rain 66 18.9 63 17.2 90 90 NE 8 13 30.33 1027 5 8.0467 0.01 0.254
10:52 pm 22:52 Cloudy with Light Rain 66 18.9 63 17.2 90 90 NE 9 15 30.33 1027 5 8.0467 0.01 0.254
11:15 pm 23:15 Cloudy with Light Rain 66 18.9 63 17.2 90 90 ENE 8 13 30.33 1027 6 9.65604 0.02 0.508
11:52 pm 23:52 Cloudy with Light Rain 67 19.4 64 17.8 91 91 E 10 17 30.33 1027 4 6.43736 0.03 0.762

Powered by AerisWeather